TimePDT,TemperatureF,Dew PointF,Humidity,Sea Level PressureIn,VisibilityMPH,Wind Direction,Wind SpeedMPH,Gust SpeedMPH,PrecipitationIn,Events,Conditions,WindDirDegrees,DateUTC
12:58 AM,59.7,43.5,55,29.95,10.0,SW,8.1,-,N/A,,Clear,230,2013-08-20 07:58:00
1:58 AM,58.8,41.7,53,29.95,10.0,SW,9.2,-,N/A,,Clear,230,2013-08-20 08:58:00
2:58 AM,56.5,41.4,57,29.96,10.0,SW,9.2,-,N/A,,Clear,230,2013-08-20 09:58:00
3:58 AM,53.6,42.6,66,29.97,10.0,South,6.9,-,N/A,,Clear,180,2013-08-20 10:58:00
4:58 AM,52.3,42.8,70,29.99,10.0,South,10.4,-,N/A,,Clear,190,2013-08-20 11:58:00
5:58 AM,50.2,41.9,73,30.00,10.0,South,8.1,-,N/A,,Clear,180,2013-08-20 12:58:00
6:58 AM,56.1,41.5,58,30.01,10.0,South,4.6,-,N/A,,Clear,180,2013-08-20 13:58:00
7:58 AM,60.6,41.5,49,30.04,10.0,South,6.9,-,N/A,,Clear,180,2013-08-20 14:58:00
8:58 AM,63.7,42.4,46,30.05,10.0,South,3.5,-,N/A,,Clear,190,2013-08-20 15:58:00
9:58 AM,67.1,42.3,40,30.06,10.0,SW,5.8,-,N/A,,Clear,230,2013-08-20 16:58:00
10:58 AM,71.2,41.4,34,30.06,10.0,South,5.8,-,N/A,,Clear,190,2013-08-20 17:58:00
11:58 AM,75.6,38.3,26,30.06,10.0,South,8.1,-,N/A,,Clear,180,2013-08-20 18:58:00
12:58 PM,77.2,36.9,23,30.05,10.0,WSW,11.5,-,N/A,,Clear,250,2013-08-20 19:58:00
1:31 PM,78.8,33.8,20,30.06,10.0,SSW,11.5,-,N/A,,Light Drizzle,200,2013-08-20 20:31:00
1:34 PM,78.8,33.8,20,30.06,10.0,SSW,5.8,-,N/A,,Clear,210,2013-08-20 20:34:00
1:52 PM,78.8,32.0,18,30.06,10.0,SW,12.7,-,N/A,,Clear,230,2013-08-20 20:52:00
1:57 PM,78.8,32.0,18,30.06,10.0,SW,10.4,-,N/A,,Light Drizzle,230,2013-08-20 20:57:00
1:58 PM,78.8,32.5,19,30.03,10.0,SW,9.2,-,0.00,,Light Drizzle,230,2013-08-20 20:58:00
1:59 PM,78.8,32.0,18,30.06,10.0,Variable,5.8,-,N/A,,Clear,0,2013-08-20 20:59:00
2:58 PM,80.6,33.1,18,30.01,10.0,West,10.4,17.3,0.00,,Clear,270,2013-08-20 21:58:00
3:58 PM,81.3,33.4,18,30.01,10.0,WSW,8.1,-,N/A,,Clear,240,2013-08-20 22:58:00
4:58 PM,81.5,31.6,16,29.99,10.0,Variable,4.6,-,N/A,,Clear,0,2013-08-20 23:58:00
5:58 PM,80.6,31.5,17,29.99,10.0,SW,8.1,-,N/A,,Clear,220,2013-08-21 00:58:00
6:58 PM,78.4,28.0,16,29.99,10.0,West,8.1,-,N/A,,Clear,260,2013-08-21 01:58:00
7:58 PM,72.1,28.2,20,30.00,10.0,West,5.8,-,N/A,,Clear,270,2013-08-21 02:58:00
8:58 PM,67.1,28.6,24,30.01,10.0,WSW,6.9,-,N/A,,Clear,240,2013-08-21 03:58:00
9:58 PM,65.7,28.2,24,30.01,10.0,SW,4.6,-,N/A,,Clear,220,2013-08-21 04:58:00
10:58 PM,61.2,28.9,30,30.03,10.0,SW,4.6,-,N/A,,Clear,220,2013-08-21 05:58:00
11:58 PM,59.0,31.1,35,30.03,10.0,WSW,3.5,-,N/A,,Clear,240,2013-08-21 06:58:00